contact:dominique.lefevre@mio.osupytheas.fr, maurice.libes@osupytheas.fr, didier.mallarino@osupytheas.fr
Project:EMSO http://www.emso-fr.org/EMSO-France
Depth: 2436.0 m
Title:EMSO Ligure Ouest : Data MII capteur CSTAR
DateTime,Latitude,Longitude,Instrument_Serial,Reference_Counts,Signal_Counts,Corrected_Signal_raw_counts,Calculated_Beam_c_inverse_meters,Internal_thermistor_counts
DateTime,Latitude,Longitude,Instrument_Serial,Reference_Counts,Signal_Counts,Corrected_Signal_raw_counts,Calculated_Beam_c_inverse_meters,Internal_thermistor_counts
2021-01-11T00:00:50,42.805,6.029,CST-1368DR,5625,7872,15045,0.149,551
2021-01-11T00:03:52,42.805,6.029,CST-1368DR,5625,7871,15044,0.149,551
2021-01-11T00:06:53,42.805,6.029,CST-1368DR,5625,7872,15045,0.149,551
2021-01-11T00:09:55,42.805,6.029,CST-1368DR,5625,7871,15044,0.149,551
2021-01-11T00:12:56,42.805,6.029,CST-1368DR,5625,7870,15043,0.150,551
2021-01-11T00:15:58,42.805,6.029,CST-1368DR,5625,7871,15044,0.149,551
2021-01-11T00:19:00,42.805,6.029,CST-1368DR,5625,7870,15043,0.150,551
2021-01-11T00:22:01,42.805,6.029,CST-1368DR,5625,7872,15045,0.149,551
2021-01-11T00:25:03,42.805,6.029,CST-1368DR,5625,7871,15044,0.149,551
2021-01-11T00:28:04,42.805,6.029,CST-1368DR,5625,7871,15044,0.149,551
2021-01-11T00:31:06,42.805,6.029,CST-1368DR,5625,7871,15043,0.150,551
2021-01-11T00:34:07,42.805,6.029,CST-1368DR,5625,7870,15043,0.150,551
2021-01-11T00:37:09,42.805,6.029,CST-1368DR,5625,7871,15044,0.149,551
2021-01-11T00:40:11,42.805,6.029,CST-1368DR,5625,7871,15043,0.150,551
2021-01-11T00:43:12,42.805,6.029,CST-1368DR,5625,7872,15045,0.149,551
2021-01-11T00:46:14,42.805,6.029,CST-1368DR,5625,7872,15045,0.149,551
2021-01-11T00:49:15,42.805,6.029,CST-1368DR,5625,7871,15044,0.149,551
2021-01-11T00:52:17,42.805,6.029,CST-1368DR,5625,7871,15044,0.149,551
2021-01-11T00:55:19,42.805,6.029,CST-1368DR,5625,7871,15044,0.149,551
2021-01-11T00:58:20,42.805,6.029,CST-1368DR,5625,7871,15044,0.149,551
2021-01-11T01:01:22,42.805,6.029,CST-1368DR,5625,7871,15043,0.150,550
2021-01-11T01:04:23,42.805,6.029,CST-1368DR,5625,7871,15044,0.149,551
2021-01-11T01:07:25,42.805,6.029,CST-1368DR,5625,7870,15043,0.150,551
2021-01-11T01:10:26,42.805,6.029,CST-1368DR,5625,7871,15044,0.149,551
2021-01-11T01:13:28,42.805,6.029,CST-1368DR,5625,7871,15044,0.149,551
2021-01-11T01:16:30,42.805,6.029,CST-1368DR,5625,7872,15045,0.149,551
2021-01-11T01:19:31,42.805,6.029,CST-1368DR,5625,7870,15042,0.150,551
2021-01-11T01:22:33,42.805,6.029,CST-1368DR,5625,7871,15044,0.149,551
2021-01-11T01:25:34,42.805,6.029,CST-1368DR,5625,7872,15045,0.149,551
2021-01-11T01:28:36,42.805,6.029,CST-1368DR,5625,7870,15043,0.150,551
2021-01-11T01:31:37,42.805,6.029,CST-1368DR,5625,7872,15045,0.149,551
2021-01-11T01:34:39,42.805,6.029,CST-1368DR,5625,7871,15044,0.149,551
2021-01-11T01:37:41,42.805,6.029,CST-1368DR,5625,7869,15039,0.151,551
2021-01-11T01:40:42,42.805,6.029,CST-1368DR,5625,7871,15044,0.149,551
2021-01-11T01:43:44,42.805,6.029,CST-1368DR,5625,7871,15044,0.149,551
2021-01-11T01:46:45,42.805,6.029,CST-1368DR,5625,7871,15044,0.149,551
2021-01-11T01:49:47,42.805,6.029,CST-1368DR,5625,7871,15044,0.149,551
2021-01-11T01:52:49,42.805,6.029,CST-1368DR,5625,7870,15042,0.150,551
2021-01-11T01:55:50,42.805,6.029,CST-1368DR,5625,7871,15044,0.149,551
2021-01-11T01:58:52,42.805,6.029,CST-1368DR,5625,7872,15045,0.149,551
2021-01-11T02:01:53,42.805,6.029,CST-1368DR,5625,7871,15044,0.149,551
2021-01-11T02:04:55,42.805,6.029,CST-1368DR,5625,7872,15045,0.149,551
2021-01-11T02:07:56,42.805,6.029,CST-1368DR,5625,7870,15043,0.150,551
2021-01-11T02:10:58,42.805,6.029,CST-1368DR,5625,7871,15044,0.149,551
2021-01-11T02:14:00,42.805,6.029,CST-1368DR,5625,7869,15040,0.150,551
2021-01-11T02:17:01,42.805,6.029,CST-1368DR,5625,7871,15044,0.149,551
2021-01-11T02:20:03,42.805,6.029,CST-1368DR,5625,7870,15042,0.150,551
2021-01-11T02:23:04,42.805,6.029,CST-1368DR,5625,7869,15040,0.150,551
2021-01-11T02:26:06,42.805,6.029,CST-1368DR,5624,7869,15043,0.150,551
2021-01-11T02:29:07,42.805,6.029,CST-1368DR,5625,7870,15042,0.150,551
2021-01-11T02:32:09,42.805,6.029,CST-1368DR,5625,7870,15043,0.150,551
2021-01-11T02:35:11,42.805,6.029,CST-1368DR,5625,7871,15043,0.150,551
2021-01-11T02:38:12,42.805,6.029,CST-1368DR,5625,7870,15043,0.150,551
2021-01-11T02:41:14,42.805,6.029,CST-1368DR,5625,7871,15044,0.149,551
2021-01-11T02:44:15,42.805,6.029,CST-1368DR,5625,7870,15041,0.150,551
2021-01-11T02:47:17,42.805,6.029,CST-1368DR,5625,7870,15043,0.150,551
2021-01-11T02:50:19,42.805,6.029,CST-1368DR,5625,7870,15041,0.150,551
2021-01-11T02:53:20,42.805,6.029,CST-1368DR,5625,7869,15041,0.150,551
2021-01-11T02:56:22,42.805,6.029,CST-1368DR,5625,7870,15042,0.150,551
2021-01-11T02:59:23,42.805,6.029,CST-1368DR,5625,7870,15043,0.150,551
2021-01-11T03:02:25,42.805,6.029,CST-1368DR,5625,7871,15044,0.149,551
2021-01-11T03:05:26,42.805,6.029,CST-1368DR,5625,7868,15039,0.151,551
2021-01-11T03:08:28,42.805,6.029,CST-1368DR,5625,7871,15044,0.149,551
2021-01-11T03:11:30,42.805,6.029,CST-1368DR,5624,7870,15045,0.149,550
2021-01-11T03:14:31,42.805,6.029,CST-1368DR,5625,7869,15041,0.150,551
2021-01-11T03:17:33,42.805,6.029,CST-1368DR,5625,7870,15041,0.150,551
2021-01-11T03:20:34,42.805,6.029,CST-1368DR,5625,7871,15043,0.150,551
2021-01-11T03:23:36,42.805,6.029,CST-1368DR,5625,7870,15041,0.150,551
2021-01-11T03:26:38,42.805,6.029,CST-1368DR,5624,7868,15041,0.150,551
2021-01-11T03:29:39,42.805,6.029,CST-1368DR,5625,7870,15043,0.150,551
2021-01-11T03:32:41,42.805,6.029,CST-1368DR,5624,7870,15045,0.149,551
2021-01-11T03:35:42,42.805,6.029,CST-1368DR,5625,7866,15034,0.152,551
2021-01-11T03:38:44,42.805,6.029,CST-1368DR,5624,7870,15045,0.149,551
2021-01-11T03:41:45,42.805,6.029,CST-1368DR,5625,7871,15044,0.149,551
2021-01-11T03:44:47,42.805,6.029,CST-1368DR,5625,7871,15044,0.149,551
2021-01-11T03:47:49,42.805,6.029,CST-1368DR,5624,7870,15045,0.149,551
2021-01-11T03:50:50,42.805,6.029,CST-1368DR,5624,7869,15042,0.150,551
2021-01-11T03:53:52,42.805,6.029,CST-1368DR,5624,7868,15041,0.150,551
2021-01-11T03:56:53,42.805,6.029,CST-1368DR,5624,7867,15039,0.151,551
2021-01-11T03:59:55,42.805,6.029,CST-1368DR,5624,7871,15046,0.149,551
2021-01-11T04:02:56,42.805,6.029,CST-1368DR,5624,7870,15044,0.149,551
2021-01-11T04:05:58,42.805,6.029,CST-1368DR,5624,7868,15041,0.150,551
2021-01-11T04:09:00,42.805,6.029,CST-1368DR,5624,7868,15041,0.150,551
2021-01-11T04:12:01,42.805,6.029,CST-1368DR,5624,7870,15044,0.149,551
2021-01-11T04:15:03,42.805,6.029,CST-1368DR,5624,7869,15043,0.150,551
2021-01-11T04:18:04,42.805,6.029,CST-1368DR,5624,7868,15040,0.150,551
2021-01-11T04:21:06,42.805,6.029,CST-1368DR,5624,7869,15042,0.150,551
2021-01-11T04:24:08,42.805,6.029,CST-1368DR,5624,7868,15040,0.150,551
2021-01-11T04:27:09,42.805,6.029,CST-1368DR,5624,7869,15043,0.150,551
2021-01-11T04:30:11,42.805,6.029,CST-1368DR,5624,7869,15042,0.150,551
2021-01-11T04:33:12,42.805,6.029,CST-1368DR,5624,7869,15042,0.150,551
2021-01-11T04:36:14,42.805,6.029,CST-1368DR,5624,7870,15044,0.149,551
2021-01-11T04:39:15,42.805,6.029,CST-1368DR,5624,7869,15042,0.150,551
2021-01-11T04:42:17,42.805,6.029,CST-1368DR,5624,7869,15043,0.150,551
2021-01-11T04:45:19,42.805,6.029,CST-1368DR,5624,7870,15045,0.149,551
2021-01-11T04:48:20,42.805,6.029,CST-1368DR,5624,7868,15040,0.150,551
2021-01-11T04:51:22,42.805,6.029,CST-1368DR,5624,7870,15045,0.149,551
2021-01-11T04:54:23,42.805,6.029,CST-1368DR,5624,7870,15045,0.149,551
2021-01-11T04:57:25,42.805,6.029,CST-1368DR,5624,7869,15043,0.150,551
2021-01-11T05:00:27,42.805,6.029,CST-1368DR,5624,7869,15043,0.150,551
2021-01-11T05:03:28,42.805,6.029,CST-1368DR,5624,7870,15045,0.149,551
2021-01-11T05:06:30,42.805,6.029,CST-1368DR,5624,7870,15045,0.149,551
2021-01-11T05:09:31,42.805,6.029,CST-1368DR,5624,7870,15045,0.149,551
2021-01-11T05:12:33,42.805,6.029,CST-1368DR,5624,7869,15043,0.150,551
2021-01-11T05:15:34,42.805,6.029,CST-1368DR,5624,7867,15039,0.151,551
2021-01-11T05:18:36,42.805,6.029,CST-1368DR,5624,7868,15040,0.150,551
2021-01-11T05:21:38,42.805,6.029,CST-1368DR,5624,7869,15042,0.150,551
2021-01-11T05:24:39,42.805,6.029,CST-1368DR,5624,7865,15035,0.152,551
2021-01-11T05:27:41,42.805,6.029,CST-1368DR,5624,7868,15041,0.150,550
2021-01-11T05:30:42,42.805,6.029,CST-1368DR,5624,7869,15043,0.150,551
2021-01-11T05:33:44,42.805,6.029,CST-1368DR,5624,7869,15042,0.150,551
2021-01-11T05:36:45,42.805,6.029,CST-1368DR,5624,7868,15041,0.150,551
2021-01-11T05:39:47,42.805,6.029,CST-1368DR,5624,7869,15042,0.150,551
2021-01-11T05:42:49,42.805,6.029,CST-1368DR,5624,7866,15036,0.151,551
2021-01-11T05:45:50,42.805,6.029,CST-1368DR,5624,7867,15039,0.151,551
2021-01-11T05:48:52,42.805,6.029,CST-1368DR,5624,7869,15042,0.150,551
2021-01-11T05:51:53,42.805,6.029,CST-1368DR,5624,7869,15043,0.150,551
2021-01-11T05:54:55,42.805,6.029,CST-1368DR,5624,7867,15039,0.151,551
2021-01-11T05:57:57,42.805,6.029,CST-1368DR,5624,7869,15043,0.150,551
2021-01-11T06:00:58,42.805,6.029,CST-1368DR,5624,7864,15032,0.152,551
2021-01-11T06:04:00,42.805,6.029,CST-1368DR,5624,7868,15040,0.150,551
2021-01-11T06:07:01,42.805,6.029,CST-1368DR,5624,7868,15041,0.150,551
2021-01-11T06:10:03,42.805,6.029,CST-1368DR,5624,7868,15040,0.150,551
2021-01-11T06:13:04,42.805,6.029,CST-1368DR,5624,7868,15040,0.150,551
2021-01-11T06:16:06,42.805,6.029,CST-1368DR,5624,7868,15041,0.150,551
2021-01-11T06:19:08,42.805,6.029,CST-1368DR,5624,7868,15040,0.150,551
2021-01-11T06:22:09,42.805,6.029,CST-1368DR,5624,7869,15042,0.150,551
2021-01-11T06:25:11,42.805,6.029,CST-1368DR,5624,7866,15036,0.151,551
2021-01-11T06:28:12,42.805,6.029,CST-1368DR,5624,7868,15041,0.150,551
2021-01-11T06:31:14,42.805,6.029,CST-1368DR,5624,7868,15040,0.150,551
2021-01-11T06:34:16,42.805,6.029,CST-1368DR,5624,7868,15041,0.150,551
2021-01-11T06:37:17,42.805,6.029,CST-1368DR,5624,7868,15040,0.150,551
2021-01-11T06:40:19,42.805,6.029,CST-1368DR,5624,7868,15041,0.150,551
2021-01-11T06:43:20,42.805,6.029,CST-1368DR,5624,7869,15042,0.150,551
2021-01-11T06:46:22,42.805,6.029,CST-1368DR,5624,7870,15044,0.149,551
2021-01-11T06:49:23,42.805,6.029,CST-1368DR,5624,7865,15036,0.151,551
2021-01-11T06:52:25,42.805,6.029,CST-1368DR,5624,7868,15040,0.150,551
2021-01-11T06:55:27,42.805,6.029,CST-1368DR,5624,7869,15042,0.150,551
2021-01-11T06:58:28,42.805,6.029,CST-1368DR,5624,7869,15042,0.150,551
2021-01-11T07:01:30,42.805,6.029,CST-1368DR,5624,7868,15040,0.150,551
2021-01-11T07:04:31,42.805,6.029,CST-1368DR,5624,7869,15043,0.150,551
2021-01-11T07:07:33,42.805,6.029,CST-1368DR,5624,7868,15041,0.150,551
2021-01-11T07:10:34,42.805,6.029,CST-1368DR,5624,7866,15036,0.151,551
2021-01-11T07:13:36,42.805,6.029,CST-1368DR,5624,7869,15042,0.150,551
2021-01-11T07:16:38,42.805,6.029,CST-1368DR,5624,7866,15036,0.151,551
2021-01-11T07:19:39,42.805,6.029,CST-1368DR,5624,7868,15041,0.150,551
2021-01-11T07:22:41,42.805,6.029,CST-1368DR,5624,7869,15043,0.150,551
2021-01-11T07:25:42,42.805,6.029,CST-1368DR,5624,7868,15040,0.150,551
2021-01-11T07:28:44,42.805,6.029,CST-1368DR,5624,7867,15038,0.151,551
2021-01-11T07:31:46,42.805,6.029,CST-1368DR,5624,7869,15042,0.150,551
2021-01-11T07:34:47,42.805,6.029,CST-1368DR,5624,7866,15036,0.151,551
2021-01-11T07:37:49,42.805,6.029,CST-1368DR,5624,7866,15036,0.151,551
2021-01-11T07:40:50,42.805,6.029,CST-1368DR,5624,7868,15041,0.150,551
2021-01-11T07:43:52,42.805,6.029,CST-1368DR,5624,7867,15039,0.151,551
2021-01-11T07:46:53,42.805,6.029,CST-1368DR,5624,7869,15043,0.150,551
2021-01-11T07:49:55,42.805,6.029,CST-1368DR,5624,7868,15041,0.150,551
2021-01-11T07:52:57,42.805,6.029,CST-1368DR,5624,7869,15042,0.150,551
2021-01-11T07:55:58,42.805,6.029,CST-1368DR,5624,7868,15040,0.150,551
2021-01-11T07:59:00,42.805,6.029,CST-1368DR,5624,7868,15040,0.150,551
2021-01-11T08:02:01,42.805,6.029,CST-1368DR,5624,7867,15038,0.151,551
2021-01-11T08:05:03,42.805,6.029,CST-1368DR,5624,7869,15042,0.150,551
2021-01-11T08:08:05,42.805,6.029,CST-1368DR,5624,7869,15042,0.150,551
2021-01-11T08:11:06,42.805,6.029,CST-1368DR,5624,7870,15044,0.149,551
2021-01-11T08:14:08,42.805,6.029,CST-1368DR,5624,7869,15043,0.150,551
2021-01-11T08:17:09,42.805,6.029,CST-1368DR,5624,7869,15043,0.150,551
2021-01-11T08:20:11,42.805,6.029,CST-1368DR,5624,7868,15041,0.150,551
2021-01-11T08:23:12,42.805,6.029,CST-1368DR,5624,7868,15040,0.150,551
2021-01-11T08:26:14,42.805,6.029,CST-1368DR,5624,7869,15043,0.150,551
2021-01-11T08:29:16,42.805,6.029,CST-1368DR,5624,7867,15039,0.151,551
2021-01-11T08:32:17,42.805,6.029,CST-1368DR,5624,7867,15039,0.151,551
2021-01-11T08:35:19,42.805,6.029,CST-1368DR,5624,7868,15040,0.150,551
2021-01-11T08:38:20,42.805,6.029,CST-1368DR,5624,7868,15040,0.150,551
2021-01-11T08:41:22,42.805,6.029,CST-1368DR,5624,7868,15041,0.150,551
2021-01-11T08:44:23,42.805,6.029,CST-1368DR,5624,7868,15040,0.150,551
2021-01-11T08:47:25,42.805,6.029,CST-1368DR,5624,7868,15041,0.150,550
2021-01-11T08:50:27,42.805,6.029,CST-1368DR,5624,7868,15040,0.150,551
2021-01-11T08:53:28,42.805,6.029,CST-1368DR,5624,7868,15040,0.150,551
2021-01-11T08:56:30,42.805,6.029,CST-1368DR,5624,7868,15041,0.150,551
2021-01-11T08:59:31,42.805,6.029,CST-1368DR,5624,7869,15043,0.150,551
2021-01-11T09:02:33,42.805,6.029,CST-1368DR,5624,7868,15041,0.150,551
2021-01-11T09:05:35,42.805,6.029,CST-1368DR,5624,7869,15042,0.150,551
2021-01-11T09:08:36,42.805,6.029,CST-1368DR,5624,7866,15037,0.151,551
2021-01-11T09:11:38,42.805,6.029,CST-1368DR,5624,7867,15039,0.151,551
2021-01-11T09:14:39,42.805,6.029,CST-1368DR,5624,7868,15041,0.150,551
2021-01-11T09:17:41,42.805,6.029,CST-1368DR,5624,7869,15042,0.150,551
2021-01-11T09:20:42,42.805,6.029,CST-1368DR,5624,7868,15040,0.150,551
2021-01-11T09:23:44,42.805,6.029,CST-1368DR,5624,7868,15040,0.150,551
2021-01-11T09:26:46,42.805,6.029,CST-1368DR,5624,7868,15041,0.150,551
2021-01-11T09:29:47,42.805,6.029,CST-1368DR,5624,7868,15041,0.150,551
2021-01-11T09:32:49,42.805,6.029,CST-1368DR,5624,7868,15041,0.150,551
2021-01-11T09:35:50,42.805,6.029,CST-1368DR,5624,7868,15040,0.150,551
2021-01-11T09:38:52,42.805,6.029,CST-1368DR,5624,7868,15040,0.150,551
2021-01-11T09:41:53,42.805,6.029,CST-1368DR,5624,7869,15042,0.150,551
2021-01-11T09:44:55,42.805,6.029,CST-1368DR,5624,7867,15039,0.151,551
2021-01-11T09:47:57,42.805,6.029,CST-1368DR,5624,7868,15041,0.150,551
2021-01-11T09:50:58,42.805,6.029,CST-1368DR,5624,7867,15039,0.151,551
2021-01-11T09:54:00,42.805,6.029,CST-1368DR,5624,7865,15035,0.152,551
2021-01-11T09:57:01,42.805,6.029,CST-1368DR,5624,7866,15037,0.151,551
2021-01-11T10:00:03,42.805,6.029,CST-1368DR,5624,7869,15042,0.150,551
2021-01-11T10:03:05,42.805,6.029,CST-1368DR,5624,7869,15042,0.150,551
2021-01-11T10:06:06,42.805,6.029,CST-1368DR,5624,7867,15038,0.151,551
2021-01-11T10:09:08,42.805,6.029,CST-1368DR,5624,7868,15040,0.150,551
2021-01-11T10:12:09,42.805,6.029,CST-1368DR,5624,7867,15038,0.151,551
2021-01-11T10:15:11,42.805,6.029,CST-1368DR,5624,7868,15040,0.150,551
2021-01-11T10:18:12,42.805,6.029,CST-1368DR,5624,7868,15041,0.150,551
2021-01-11T10:21:14,42.805,6.029,CST-1368DR,5624,7868,15041,0.150,551
2021-01-11T10:24:16,42.805,6.029,CST-1368DR,5624,7868,15041,0.150,551
2021-01-11T10:27:17,42.805,6.029,CST-1368DR,5624,7868,15041,0.150,551
2021-01-11T10:30:19,42.805,6.029,CST-1368DR,5624,7869,15042,0.150,551
2021-01-11T10:33:20,42.805,6.029,CST-1368DR,5624,7868,15041,0.150,551
2021-01-11T10:36:22,42.805,6.029,CST-1368DR,5624,7868,15040,0.150,551
2021-01-11T10:39:24,42.805,6.029,CST-1368DR,5624,7868,15041,0.150,551
2021-01-11T10:42:25,42.805,6.029,CST-1368DR,5624,7869,15042,0.150,551
2021-01-11T10:45:27,42.805,6.029,CST-1368DR,5624,7866,15036,0.151,551
2021-01-11T10:48:28,42.805,6.029,CST-1368DR,5624,7868,15041,0.150,551
2021-01-11T10:51:30,42.805,6.029,CST-1368DR,5624,7868,15040,0.150,551
2021-01-11T10:54:31,42.805,6.029,CST-1368DR,5624,7868,15041,0.150,551
2021-01-11T10:57:33,42.805,6.029,CST-1368DR,5624,7868,15041,0.150,551
2021-01-11T11:00:35,42.805,6.029,CST-1368DR,5624,7867,15038,0.151,551
2021-01-11T11:03:36,42.805,6.029,CST-1368DR,5624,7868,15040,0.150,551
2021-01-11T11:06:38,42.805,6.029,CST-1368DR,5624,7868,15041,0.150,551
2021-01-11T11:09:39,42.805,6.029,CST-1368DR,5624,7867,15038,0.151,551
2021-01-11T11:12:41,42.805,6.029,CST-1368DR,5624,7868,15040,0.150,551
2021-01-11T11:15:43,42.805,6.029,CST-1368DR,5624,7861,15027,0.154,551
2021-01-11T11:18:44,42.805,6.029,CST-1368DR,5624,7867,15039,0.151,551
2021-01-11T11:21:46,42.805,6.029,CST-1368DR,5624,7868,15040,0.150,551
2021-01-11T11:24:47,42.805,6.029,CST-1368DR,5624,7868,15040,0.150,551
2021-01-11T11:27:49,42.805,6.029,CST-1368DR,5624,7868,15040,0.150,551
2021-01-11T11:30:50,42.805,6.029,CST-1368DR,5624,7869,15042,0.150,551
2021-01-11T11:33:52,42.805,6.029,CST-1368DR,5624,7868,15040,0.150,551
2021-01-11T11:36:54,42.805,6.029,CST-1368DR,5624,7868,15040,0.150,551
2021-01-11T11:39:55,42.805,6.029,CST-1368DR,5624,7868,15040,0.150,551
2021-01-11T11:42:57,42.805,6.029,CST-1368DR,5624,7868,15040,0.150,551
2021-01-11T11:45:58,42.805,6.029,CST-1368DR,5624,7868,15041,0.150,551
2021-01-11T11:49:00,42.805,6.029,CST-1368DR,5623,7868,15043,0.150,550
2021-01-11T11:52:01,42.805,6.029,CST-1368DR,5624,7866,15037,0.151,551
2021-01-11T11:55:03,42.805,6.029,CST-1368DR,5624,7868,15040,0.150,551
2021-01-11T11:58:05,42.805,6.029,CST-1368DR,5624,7867,15039,0.151,551
2021-01-11T12:01:06,42.805,6.029,CST-1368DR,5624,7869,15042,0.150,551
2021-01-11T12:04:08,42.805,6.029,CST-1368DR,5624,7865,15036,0.151,551
2021-01-11T12:07:09,42.805,6.029,CST-1368DR,5624,7865,15035,0.152,551
2021-01-11T12:10:11,42.805,6.029,CST-1368DR,5624,7868,15040,0.150,551
2021-01-11T12:13:13,42.805,6.029,CST-1368DR,5624,7866,15037,0.151,551
2021-01-11T12:16:14,42.805,6.029,CST-1368DR,5624,7867,15038,0.151,551
2021-01-11T12:19:16,42.805,6.029,CST-1368DR,5624,7866,15036,0.151,551
2021-01-11T12:22:17,42.805,6.029,CST-1368DR,5624,7868,15040,0.150,551
2021-01-11T12:25:19,42.805,6.029,CST-1368DR,5624,7868,15040,0.150,551
2021-01-11T12:28:20,42.805,6.029,CST-1368DR,5623,7864,15036,0.151,551
2021-01-11T12:31:22,42.805,6.029,CST-1368DR,5623,7867,15041,0.150,551
2021-01-11T12:34:24,42.805,6.029,CST-1368DR,5623,7868,15043,0.150,551
2021-01-11T12:37:25,42.805,6.029,CST-1368DR,5623,7866,15040,0.150,551
2021-01-11T12:40:27,42.805,6.029,CST-1368DR,5623,7868,15043,0.150,551
2021-01-11T12:43:28,42.805,6.029,CST-1368DR,5623,7868,15042,0.150,551
2021-01-11T12:46:30,42.805,6.029,CST-1368DR,5623,7866,15039,0.151,551
2021-01-11T12:49:31,42.805,6.029,CST-1368DR,5623,7867,15042,0.150,551
2021-01-11T12:52:33,42.805,6.029,CST-1368DR,5623,7868,15043,0.150,551
2021-01-11T12:55:35,42.805,6.029,CST-1368DR,5623,7867,15042,0.150,551
2021-01-11T12:58:36,42.805,6.029,CST-1368DR,5623,7865,15037,0.151,551
2021-01-11T13:01:38,42.805,6.029,CST-1368DR,5623,7868,15042,0.150,551
2021-01-11T13:04:39,42.805,6.029,CST-1368DR,5623,7868,15043,0.150,551
2021-01-11T13:07:41,42.805,6.029,CST-1368DR,5624,7868,15040,0.150,551
2021-01-11T13:10:43,42.805,6.029,CST-1368DR,5624,7868,15040,0.150,551
2021-01-11T13:13:44,42.805,6.029,CST-1368DR,5624,7868,15041,0.150,550
2021-01-11T13:16:46,42.805,6.029,CST-1368DR,5623,7868,15043,0.150,551
2021-01-11T13:19:47,42.805,6.029,CST-1368DR,5623,7867,15041,0.150,551
2021-01-11T13:22:49,42.805,6.029,CST-1368DR,5623,7868,15043,0.150,551
2021-01-11T13:25:50,42.805,6.029,CST-1368DR,5623,7868,15043,0.150,551
2021-01-11T13:28:52,42.805,6.029,CST-1368DR,5623,7868,15042,0.150,551
2021-01-11T13:31:54,42.805,6.029,CST-1368DR,5624,7868,15041,0.150,551
2021-01-11T13:34:55,42.805,6.029,CST-1368DR,5623,7868,15042,0.150,551
2021-01-11T13:37:57,42.805,6.029,CST-1368DR,5623,7867,15042,0.150,551
2021-01-11T13:40:58,42.805,6.029,CST-1368DR,5623,7868,15043,0.150,551
2021-01-11T13:44:00,42.805,6.029,CST-1368DR,5623,7866,15040,0.150,551
2021-01-11T13:47:02,42.805,6.029,CST-1368DR,5623,7868,15043,0.150,551
2021-01-11T13:50:03,42.805,6.029,CST-1368DR,5623,7868,15042,0.150,551
2021-01-11T13:53:05,42.805,6.029,CST-1368DR,5623,7868,15042,0.150,551
2021-01-11T13:56:06,42.805,6.029,CST-1368DR,5623,7868,15044,0.149,551
2021-01-11T13:59:08,42.805,6.029,CST-1368DR,5623,7867,15042,0.150,551
2021-01-11T14:02:09,42.805,6.029,CST-1368DR,5623,7865,15038,0.151,551
2021-01-11T14:05:11,42.805,6.029,CST-1368DR,5623,7866,15039,0.151,551
2021-01-11T14:08:13,42.805,6.029,CST-1368DR,5623,7866,15039,0.151,551
2021-01-11T14:11:14,42.805,6.029,CST-1368DR,5623,7867,15041,0.150,551
2021-01-11T14:14:16,42.805,6.029,CST-1368DR,5623,7868,15043,0.150,551
2021-01-11T14:17:17,42.805,6.029,CST-1368DR,5623,7867,15042,0.150,551
2021-01-11T14:20:19,42.805,6.029,CST-1368DR,5623,7868,15044,0.149,551
2021-01-11T14:23:21,42.805,6.029,CST-1368DR,5623,7867,15042,0.150,551
2021-01-11T14:26:22,42.805,6.029,CST-1368DR,5623,7868,15043,0.150,551
2021-01-11T14:29:24,42.805,6.029,CST-1368DR,5623,7866,15040,0.150,551
2021-01-11T14:32:25,42.805,6.029,CST-1368DR,5623,7866,15040,0.150,551
2021-01-11T14:35:27,42.805,6.029,CST-1368DR,5623,7867,15041,0.150,551
2021-01-11T14:38:28,42.805,6.029,CST-1368DR,5623,7867,15042,0.150,551
2021-01-11T14:41:30,42.805,6.029,CST-1368DR,5623,7867,15041,0.150,551
2021-01-11T14:44:32,42.805,6.029,CST-1368DR,5623,7867,15041,0.150,551
2021-01-11T14:47:33,42.805,6.029,CST-1368DR,5623,7868,15043,0.150,551
2021-01-11T14:50:35,42.805,6.029,CST-1368DR,5623,7867,15042,0.150,551
2021-01-11T14:53:36,42.805,6.029,CST-1368DR,5623,7868,15043,0.150,551
2021-01-11T14:56:38,42.805,6.029,CST-1368DR,5623,7867,15042,0.150,551
2021-01-11T14:59:39,42.805,6.029,CST-1368DR,5623,7867,15042,0.150,551
2021-01-11T15:02:41,42.805,6.029,CST-1368DR,5623,7868,15042,0.150,551
2021-01-11T15:05:43,42.805,6.029,CST-1368DR,5623,7866,15039,0.151,551
2021-01-11T15:08:44,42.805,6.029,CST-1368DR,5623,7868,15042,0.150,551
2021-01-11T15:11:46,42.805,6.029,CST-1368DR,5623,7864,15035,0.152,551
2021-01-11T15:14:47,42.805,6.029,CST-1368DR,5623,7865,15038,0.151,550
2021-01-11T15:17:49,42.805,6.029,CST-1368DR,5623,7867,15042,0.150,551
2021-01-11T15:20:51,42.805,6.029,CST-1368DR,5623,7865,15038,0.151,551
2021-01-11T15:23:52,42.805,6.029,CST-1368DR,5623,7867,15041,0.150,551
2021-01-11T15:26:54,42.805,6.029,CST-1368DR,5623,7867,15041,0.150,551
2021-01-11T15:29:55,42.805,6.029,CST-1368DR,5623,7868,15042,0.150,551
2021-01-11T15:32:57,42.805,6.029,CST-1368DR,5623,7867,15041,0.150,551
2021-01-11T15:35:58,42.805,6.029,CST-1368DR,5623,7867,15041,0.150,551
2021-01-11T15:39:00,42.805,6.029,CST-1368DR,5623,7868,15042,0.150,551
2021-01-11T15:42:02,42.805,6.029,CST-1368DR,5623,7865,15037,0.151,551
2021-01-11T15:45:03,42.805,6.029,CST-1368DR,5623,7866,15040,0.150,551
2021-01-11T15:48:05,42.805,6.029,CST-1368DR,5623,7867,15041,0.150,551
2021-01-11T15:51:06,42.805,6.029,CST-1368DR,5623,7868,15043,0.150,551
2021-01-11T15:54:08,42.805,6.029,CST-1368DR,5623,7866,15040,0.150,551
2021-01-11T15:57:10,42.805,6.029,CST-1368DR,5623,7864,15035,0.152,551
2021-01-11T16:00:11,42.805,6.029,CST-1368DR,5623,7867,15041,0.150,551
2021-01-11T16:03:13,42.805,6.029,CST-1368DR,5623,7865,15037,0.151,551
2021-01-11T16:06:14,42.805,6.029,CST-1368DR,5623,7862,15031,0.153,551
2021-01-11T16:09:16,42.805,6.029,CST-1368DR,5623,7865,15038,0.151,551
2021-01-11T16:12:17,42.805,6.029,CST-1368DR,5623,7864,15035,0.152,551
2021-01-11T16:15:19,42.805,6.029,CST-1368DR,5623,7865,15037,0.151,551
2021-01-11T16:18:21,42.805,6.029,CST-1368DR,5623,7867,15041,0.150,551
2021-01-11T16:21:22,42.805,6.029,CST-1368DR,5623,7866,15039,0.151,551
2021-01-11T16:24:24,42.805,6.029,CST-1368DR,5623,7866,15039,0.151,551
2021-01-11T16:27:25,42.805,6.029,CST-1368DR,5623,7866,15040,0.150,551
2021-01-11T16:30:27,42.805,6.029,CST-1368DR,5623,7867,15042,0.150,551
2021-01-11T16:33:28,42.805,6.029,CST-1368DR,5623,7867,15041,0.150,550
2021-01-11T16:36:30,42.805,6.029,CST-1368DR,5623,7867,15042,0.150,551
2021-01-11T16:39:32,42.805,6.029,CST-1368DR,5623,7868,15042,0.150,551
2021-01-11T16:42:33,42.805,6.029,CST-1368DR,5623,7867,15042,0.150,551
2021-01-11T16:45:35,42.805,6.029,CST-1368DR,5623,7867,15041,0.150,551
2021-01-11T16:48:36,42.805,6.029,CST-1368DR,5623,7866,15040,0.150,551
2021-01-11T16:51:38,42.805,6.029,CST-1368DR,5623,7867,15041,0.150,551